Wind_Speed
7 8 6 4 2 3 5 9 4 12 5 4 19 6 5 13 8 5 22 30 22 25 31 30 28 25 24 24 24 22 19 16 13 11 12 13 15 16 17 18 19 17 14 11 11 11 9 8 8
5 4 6 2 4 3 7 5 17 14 7 24 21 11 2 3 6 9 27 31 22 26 33 31 29 26 25 24 24 23 21 18 15 13 12 13 14 16 16 16 16 15 13 12 10 9 7 7 8
4 6 4 4 5 11 7 7 15 9 10 22 17 8 10 7 12 30 27 30 32 36 33 31 30 28 25 24 24 24 22 18 16 14 13 14 14 15 14 14 14 13 11 9 8 7 7 7 8
4 6 5 3 13 8 13 7 12 13 17 14 12 5 6 6 22 26 25 22 26 33 32 30 30 27 25 24 24 24 22 19 15 13 12 13 14 15 13 12 12 11 9 7 6 5 6 7 8
9 3 3 5 14 7 9 15 25 15 8 22 23 5 9 22 21 16 16 20 23 33 32 31 28 26 24 23 23 22 21 19 15 12 11 12 13 13 13 12 11 10 7 5 4 3 4 5 6
6 3 2 14 15 4 8 29 25 21 18 31 2 4 9 17 27 24 23 22 22 32 33 30 28 25 23 23 23 22 21 19 17 14 14 13 13 13 11 10 9 8 7 5 3 3 3 3 4
6 4 6 5 5 6 18 28 11 14 10 24 22 7 10 27 26 25 23 22 24 32 33 33 31 27 24 23 23 23 21 18 16 15 14 13 13 13 12 10 8 6 4 3 3 3 3 4 4
7 4 4 6 12 11 17 8 19 14 15 32 32 8 11 38 34 32 30 26 28 36 36 36 33 30 28 25 23 21 20 18 17 15 14 14 13 13 12 9 7 4 2 1 2 2 3 4 5
12 2 7 10 11 18 13 4 15 12 21 30 24 15 29 44 41 38 33 28 33 37 37 37 35 33 29 27 25 23 20 18 17 16 15 15 13 13 11 9 7 4 2 1 2 2 3 4 5
7 7 12 8 18 6 13 8 18 10 20 26 3 10 37 46 44 41 35 34 35 37 36 36 34 32 30 28 26 24 21 20 18 17 15 12 11 10 9 8 6 3 1 1 2 3 3 4 5
8 18 19 10 22 25 19 20 18 6 6 15 13 17 46 50 48 43 34 28 27 29 29 32 32 29 28 27 25 23 21 18 17 15 13 13 12 12 10 7 9 9 6 4 2 0 3 5 1
7 18 23 8 21 18 9 23 5 12 20 30 31 20 46 49 46 47 40 35 36 37 33 34 29 26 26 23 21 19 18 18 16 14 12 12 12 11 10 11 8 6 8 8 4 7 4 3 4
13 4 12 28 30 34 31 25 23 31 33 33 30 19 36 45 46 43 44 38 36 38 32 29 26 24 23 22 20 19 18 15 13 13 13 13 14 13 11 10 6 4 4 3 5 7 8 7 9
4 9 21 27 28 22 18 21 15 37 24 24 26 19 18 23 33 36 39 43 43 37 37 34 30 29 26 25 24 21 17 14 13 12 10 12 11 10 7 4 6 7 6 8 12 9 9 11 15
21 15 15 20 20 16 22 19 29 42 24 24 26 24 15 11 22 30 28 39 44 41 39 40 38 33 26 22 19 18 17 11 13 13 12 10 11 9 9 9 9 11 10 11 12 11 10 10 13
5 5 12 16 14 10 14 30 23 29 16 22 23 25 22 12 15 23 23 20 35 43 42 36 37 39 34 30 30 20 14 17 14 13 13 12 15 13 13 15 13 12 12 11 12 13 13 15 18
6 12 13 9 8 6 18 26 8 22 21 24 33 31 28 19 19 17 17 16 24 38 43 40 40 30 35 35 27 18 20 15 15 12 12 14 17 16 14 16 14 13 14 15 15 17 19 20 20
10 4 4 7 4 10 12 24 17 19 26 24 28 34 32 27 21 26 21 17 19 31 38 39 43 39 34 33 27 20 21 19 15 14 12 17 20 19 17 14 14 16 18 18 18 18 16 15 15
11 12 9 9 7 8 9 21 13 12 17 19 27 28 35 33 24 29 27 25 28 40 44 43 39 36 37 36 35 33 32 22 21 18 15 18 21 18 18 17 17 18 16 17 19 15 12 13 15
8 13 17 16 13 7 13 22 12 9 10 21 27 31 39 22 29 32 33 33 36 40 45 46 41 43 47 40 36 35 31 26 23 22 20 22 22 19 19 19 18 15 15 15 13 10 10 12 6
15 14 17 15 16 20 11 18 18 6 16 22 30 40 40 31 32 35 36 37 40 47 51 50 45 46 44 42 41 34 26 22 23 24 23 23 21 20 19 19 18 14 15 12 10 9 7 7 3
12 8 16 15 8 12 5 9 16 4 10 12 24 32 42 34 37 42 40 42 45 46 48 46 42 39 41 46 43 36 31 27 27 26 23 24 21 20 19 18 13 11 10 8 8 6 7 7 5
16 10 16 10 13 15 17 3 17 7 9 12 17 34 40 32 40 44 45 44 42 44 48 46 41 41 45 45 39 36 30 26 28 25 22 21 20 18 13 11 11 10 8 8 8 7 7 9 10
11 3 9 3 8 12 18 7 17 14 18 16 15 34 38 32 40 43 47 45 47 49 50 45 42 39 44 39 40 33 31 32 32 27 23 20 15 12 11 11 13 12 11 10 7 7 9 12 8
5 5 2 5 9 11 14 9 21 8 14 20 17 28 28 32 40 46 50 49 51 55 50 47 43 42 39 38 37 33 33 32 30 26 23 20 18 15 13 15 13 10 8 6 10 13 10 7 5
9 11 6 10 13 14 19 9 15 20 25 22 16 30 31 37 44 47 50 52 52 54 52 44 45 43 39 33 32 31 32 29 28 26 22 20 19 16 16 14 9 9 11 11 11 9 8 4 5
3 8 13 8 6 3 4 7 19 20 19 12 18 28 26 35 41 47 48 53 53 58 53 48 44 41 39 36 33 33 29 29 28 23 24 22 18 16 14 11 10 9 9 7 5 4 5 5 6
6 3 3 3 4 9 6 7 8 26 23 10 12 11 30 17 37 44 48 52 56 61 55 50 47 47 43 39 32 29 27 26 23 23 22 19 17 16 13 11 10 8 7 7 6 6 6 7 8
6 3 3 4 5 4 3 5 17 15 2 4 9 18 22 17 37 49 47 48 55 59 57 49 44 40 38 35 33 32 29 24 23 21 19 19 17 14 13 12 11 11 8 5 4 6 7 8 11
3 5 3 7 5 4 2 9 4 3 3 6 11 26 18 23 42 44 45 49 52 52 50 48 45 43 40 37 33 31 28 23 22 22 21 18 18 16 16 14 12 9 6 6 6 7 9 11 15
Wind_Direction
240 256 239 219 47 76 243 244 313 269 317 292 346 191 164 159 172 209 154 161 169 169 176 171 173 176 173 169 167 165 164 160 154 147 144 147 146 144 144 145 146 144 141 139 139 139 140 137 138
224 225 210 209 141 200 253 246 256 249 257 296 333 135 121 224 198 152 159 177 180 176 176 172 173 176 174 172 168 165 166 165 159 151 144 146 147 144 143 145 148 147 143 137 137 147 153 146 143
250 204 196 168 190 217 234 234 256 266 271 300 318 164 150 186 187 161 166 169 168 173 174 173 174 175 174 173 172 168 168 168 163 155 149 149 150 147 145 146 151 152 150 150 154 153 154 154 149
216 176 247 197 234 246 227 268 279 294 307 302 307 320 140 173 160 176 177 166 160 175 174 174 174 176 172 174 175 170 168 170 167 160 154 152 154 151 146 141 143 148 153 153 156 159 158 159 155
208 205 233 244 249 253 250 251 267 279 273 280 305 241 137 158 171 151 158 166 165 175 177 176 175 176 173 175 175 173 170 168 168 161 157 156 157 157 150 144 145 149 153 160 171 178 174 171 162
185 200 154 235 239 242 260 260 263 269 270 277 164 149 168 188 167 165 159 167 174 179 177 178 177 177 174 176 176 174 173 171 171 166 164 164 162 162 157 153 152 157 160 166 183 183 187 198 189
168 116 221 228 262 268 251 254 253 270 271 271 249 165 179 179 179 164 164 169 172 184 181 180 178 176 178 178 178 175 174 174 173 170 169 168 167 167 166 163 160 162 163 173 182 207 214 215 215
211 129 231 225 242 263 256 238 258 276 275 292 257 176 175 184 179 170 169 177 179 186 185 182 177 177 178 178 179 175 176 178 176 175 174 173 172 172 171 167 159 161 161 186 242 245 261 264 253
198 181 222 222 221 232 279 279 271 296 297 305 259 195 201 177 176 170 173 173 180 182 185 181 181 180 178 178 176 178 178 179 180 180 179 177 176 175 173 168 165 174 204 261 286 292 286 274 271
185 206 222 216 229 268 278 270 288 331 310 303 275 149 177 177 178 173 177 172 173 183 187 187 184 181 180 179 179 180 181 183 183 183 179 176 175 173 174 171 171 158 206 283 332 326 316 313 303
201 228 226 264 239 258 270 280 281 279 282 281 286 159 170 173 178 179 180 187 186 184 183 191 190 183 182 184 184 183 186 185 186 185 180 173 171 174 181 164 124 100 69 165 105 244 96 73 342
237 235 233 242 255 263 247 271 233 272 272 287 288 192 164 171 174 181 182 181 181 179 181 185 187 185 189 192 192 191 191 190 190 181 182 179 170 162 159 153 144 104 73 127 104 139 137 147 180
235 231 227 241 244 254 269 268 271 270 270 282 286 244 174 176 179 178 186 186 186 181 179 174 182 190 193 196 201 202 201 201 199 189 188 184 179 177 151 159 160 195 192 198 219 194 209 225 238
222 236 249 254 253 245 243 263 262 266 260 272 282 246 202 197 188 178 177 187 190 192 184 173 200 191 196 202 203 203 208 207 211 204 200 198 187 186 162 172 200 209 199 239 250 246 251 267 259
271 272 275 248 243 245 250 263 246 259 262 266 271 260 242 220 202 199 193 185 192 196 191 188 187 200 194 188 199 185 196 203 210 193 166 168 184 182 197 217 236 241 246 250 256 265 271 281 269
312 260 242 252 231 222 206 255 252 260 234 246 258 261 245 211 181 190 194 189 186 190 192 191 189 189 194 208 215 194 175 179 181 173 177 166 179 195 214 220 229 241 260 264 253 248 256 274 276
218 249 238 278 215 189 204 254 242 246 247 237 251 258 246 230 174 185 195 198 188 192 192 188 179 187 201 194 200 200 180 182 207 199 200 202 194 205 223 228 241 252 256 259 250 258 270 271 279
237 261 251 234 265 208 244 252 240 238 227 237 241 245 246 241 203 200 206 208 193 186 189 188 180 178 189 193 201 186 190 194 203 213 214 216 210 215 229 243 249 246 258 262 265 267 268 273 278
292 288 289 273 241 259 262 260 246 218 227 235 239 239 243 239 227 206 198 205 183 180 180 183 181 196 187 186 183 186 195 183 191 205 224 220 216 229 236 245 246 248 253 259 259 258 265 280 290
274 280 273 288 278 282 261 269 275 231 220 222 228 233 241 216 218 205 194 189 185 180 184 183 185 182 184 190 188 185 187 178 185 203 213 219 222 233 244 259 263 257 258 257 250 255 269 283 256
240 247 267 271 303 282 278 285 276 273 242 238 225 230 235 219 209 198 191 187 183 180 183 184 183 181 191 191 192 185 191 189 193 205 208 213 221 239 254 261 261 253 252 247 245 241 257 178 218
274 256 259 268 288 259 118 266 265 235 267 237 228 224 227 211 213 214 194 190 188 188 189 185 188 198 198 200 201 196 191 191 201 206 212 223 230 240 251 256 243 249 244 225 218 194 189 205 267
260 281 270 290 283 270 271 262 271 218 246 250 231 224 228 204 207 207 203 196 195 193 191 190 195 193 198 208 212 198 194 202 205 211 216 224 229 242 246 228 237 215 200 195 186 190 217 258 275
255 218 308 286 240 253 246 198 265 248 233 253 248 235 224 195 198 207 211 203 192 191 190 192 192 201 203 205 193 196 196 198 204 208 214 218 224 229 228 221 194 185 196 203 220 250 267 271 276
186 100 244 245 233 241 240 219 250 250 232 240 249 249 226 196 193 200 204 198 192 190 189 188 193 193 190 182 193 199 204 208 210 210 216 215 213 211 208 192 188 198 224 247 264 263 251 257 289
199 171 205 212 224 236 244 236 226 237 250 263 241 267 235 198 190 193 205 202 193 189 184 189 189 186 186 187 191 198 199 201 209 213 215 206 201 201 192 187 198 234 242 245 234 232 234 266 305
201 201 208 239 250 259 274 226 269 269 269 263 243 263 260 195 183 193 200 202 193 181 182 182 182 179 183 183 190 196 199 200 205 203 196 192 194 189 187 201 217 222 213 214 245 240 265 276 283
208 194 148 176 231 226 235 233 240 234 248 298 264 245 257 222 177 188 193 195 186 182 179 177 176 177 183 185 189 195 195 207 204 199 193 188 183 186 195 203 197 197 206 207 227 247 248 266 277
204 206 196 159 172 209 221 235 209 243 154 321 317 318 278 190 177 177 174 164 173 174 172 176 175 174 175 179 185 185 186 197 192 187 185 176 175 180 182 181 185 199 214 239 273 264 275 286 292
252 282 275 218 218 224 235 255 295 122 78 5 336 322 295 196 172 155 155 155 153 156 164 172 170 170 173 175 175 176 172 179 187 176 171 173 168 167 175 182 196 210 241 268 287 300 303 301 301
Height
1501 1503 1504 1506 1516 1516 1514 1496 1477 1475 1477 1467 1467 1465 1462 1459 1469 1481 1461 1466 1470 1474 1483 1487 1493 1498 1500 1502 1505 1509 1512 1514 1515 1516 1517 1518 1519 1520 1522 1523 1523 1525 1528 1529 1529 1529 1529 1530 1530
1499 1502 1503 1503 1517 1524 1504 1478 1477 1467 1473 1469 1468 1466 1464 1464 1458 1458 1460 1462 1470 1473 1480 1485 1491 1496 1500 1503 1505 1507 1511 1513 1515 1516 1518 1520 1521 1523 1525 1526 1527 1527 1529 1531 1531 1531 1532 1532 1532
1498 1500 1502 1503 1511 1505 1499 1472 1463 1463 1471 1470 1468 1463 1458 1458 1455 1456 1458 1461 1465 1473 1479 1484 1492 1496 1499 1503 1507 1508 1510 1514 1516 1516 1517 1520 1522 1524 1527 1527 1528 1529 1530 1531 1533 1533 1533 1535 1535
1496 1499 1499 1502 1497 1484 1473 1468 1460 1463 1466 1467 1466 1465 1457 1454 1453 1454 1457 1463 1466 1476 1481 1486 1491 1497 1498 1503 1508 1509 1511 1514 1517 1518 1518 1520 1522 1524 1527 1529 1530 1531 1533 1533 1533 1534 1535 1535 1535
1494 1496 1503 1501 1486 1475 1469 1468 1465 1465 1470 1462 1462 1463 1456 1456 1455 1455 1458 1463 1467 1474 1482 1488 1492 1497 1499 1504 1509 1511 1512 1515 1517 1519 1520 1522 1523 1525 1527 1527 1529 1531 1533 1534 1535 1535 1537 1537 1537
1492 1491 1505 1493 1478 1471 1466 1464 1464 1461 1465 1459 1464 1461 1458 1456 1454 1456 1459 1463 1468 1473 1482 1489 1494 1498 1500 1506 1509 1511 1512 1514 1515 1516 1518 1520 1522 1525 1528 1529 1530 1531 1531 1533 1535 1535 1537 1539 1539
1486 1492 1495 1489 1481 1475 1461 1460 1461 1458 1461 1456 1456 1460 1457 1455 1457 1455 1459 1464 1469 1476 1481 1486 1492 1496 1502 1505 1508 1509 1511 1514 1516 1517 1519 1521 1522 1524 1527 1529 1531 1532 1532 1533 1533 1535 1536 1537 1538
1482 1483 1485 1481 1476 1474 1451 1457 1457 1459 1452 1448 1447 1455 1455 1451 1455 1457 1459 1463 1470 1475 1480 1484 1489 1494 1500 1504 1508 1510 1512 1515 1516 1518 1520 1521 1523 1524 1527 1528 1529 1532 1534 1534 1535 1535 1536 1538 1538
1478 1486 1485 1474 1470 1456 1446 1454 1452 1455 1453 1445 1437 1435 1439 1446 1454 1459 1461 1466 1471 1476 1480 1484 1488 1493 1498 1501 1505 1508 1511 1514 1516 1518 1520 1521 1523 1524 1525 1527 1527 1531 1533 1534 1535 1535 1536 1536 1538
1471 1474 1464 1453 1453 1453 1449 1453 1451 1454 1451 1445 1437 1433 1437 1445 1450 1454 1458 1461 1468 1474 1479 1484 1489 1493 1498 1502 1504 1507 1509 1512 1514 1518 1520 1523 1525 1527 1528 1527 1527 1528 1529 1532 1533 1534 1535 1536 1537
1460 1452 1452 1451 1454 1453 1450 1450 1451 1452 1449 1443 1443 1434 1435 1442 1448 1451 1456 1458 1462 1470 1478 1486 1491 1496 1501 1504 1505 1507 1510 1513 1516 1519 1521 1522 1524 1526 1528 1529 1530 1529 1527 1529 1530 1532 1533 1535 1535
1457 1445 1448 1448 1452 1451 1448 1447 1446 1448 1444 1441 1439 1437 1434 1438 1445 1450 1453 1457 1463 1469 1476 1484 1494 1499 1502 1507 1508 1511 1512 1513 1516 1517 1522 1522 1525 1526 1527 1528 1529 1529 1529 1529 1529 1529 1531 1531 1532
1446 1442 1443 1445 1447 1444 1447 1442 1442 1437 1441 1440 1436 1439 1434 1437 1441 1447 1449 1452 1460 1465 1473 1482 1492 1497 1502 1505 1511 1510 1512 1515 1519 1517 1518 1519 1520 1523 1526 1527 1527 1529 1527 1527 1528 1528 1528 1530 1530
1438 1440 1440 1439 1437 1440 1443 1439 1444 1418 1436 1437 1434 1433 1434 1437 1441 1445 1446 1449 1454 1461 1467 1475 1481 1493 1495 1501 1505 1504 1508 1511 1519 1520 1520 1521 1523 1527 1522 1524 1525 1526 1525 1527 1526 1527 1528 1529 1530
1439 1439 1434 1428 1430 1433 1440 1435 1420 1417 1432 1433 1430 1428 1430 1433 1438 1442 1440 1444 1450 1458 1464 1468 1476 1484 1489 1498 1504 1502 1503 1508 1516 1518 1519 1520 1523 1526 1526 1526 1526 1525 1525 1526 1526 1525 1525 1526 1527
1439 1437 1439 1417 1425 1429 1437 1417 1411 1419 1424 1425 1426 1425 1426 1431 1434 1437 1438 1440 1448 1452 1459 1466 1474 1479 1486 1493 1503 1501 1501 1509 1516 1518 1519 1520 1521 1524 1525 1527 1525 1524 1524 1525 1526 1526 1524 1526 1527
1438 1435 1433 1429 1419 1422 1424 1407 1413 1414 1416 1417 1419 1420 1421 1427 1433 1434 1436 1437 1442 1449 1455 1463 1469 1477 1481 1490 1498 1503 1501 1507 1514 1515 1518 1521 1520 1521 1524 1523 1522 1523 1527 1526 1526 1525 1524 1525 1524
1433 1435 1431 1429 1420 1418 1418 1408 1408 1410 1410 1409 1411 1413 1416 1421 1431 1430 1433 1435 1438 1445 1452 1459 1466 1475 1482 1488 1493 1494 1501 1503 1508 1512 1516 1519 1518 1518 1522 1521 1521 1521 1523 1524 1524 1522 1522 1521 1520
1430 1429 1430 1419 1418 1421 1418 1405 1405 1405 1406 1404 1402 1405 1408 1418 1426 1427 1429 1431 1437 1444 1451 1458 1463 1471 1476 1481 1485 1490 1496 1495 1502 1509 1510 1514 1515 1517 1519 1520 1521 1520 1520 1520 1519 1517 1518 1517 1517
1431 1431 1427 1420 1417 1421 1414 1404 1402 1399 1400 1400 1399 1399 1401 1413 1419 1421 1424 1427 1432 1439 1448 1456 1461 1465 1471 1476 1480 1486 1490 1490 1493 1504 1508 1510 1513 1515 1517 1517 1518 1518 1516 1516 1517 1515 1515 1516 1516
1427 1432 1426 1427 1420 1411 1418 1412 1403 1396 1392 1392 1393 1392 1396 1406 1410 1414 1418 1424 1429 1436 1444 1451 1457 1461 1467 1473 1475 1481 1487 1488 1490 1496 1501 1507 1511 1514 1514 1516 1515 1513 1514 1513 1515 1514 1514 1514 1516
1427 1423 1419 1421 1427 1419 1412 1423 1398 1396 1395 1388 1385 1385 1384 1397 1402 1405 1412 1418 1423 1431 1440 1447 1454 1458 1462 1468 1471 1475 1481 1479 1486 1494 1498 1505 1508 1510 1511 1511 1513 1510 1513 1513 1514 1513 1515 1515 1515
1416 1418 1418 1422 1426 1418 1417 1432 1389 1394 1394 1387 1377 1374 1373 1388 1390 1399 1404 1410 1419 1426 1433 1442 1449 1455 1458 1462 1467 1470 1477 1480 1488 1493 1498 1499 1502 1506 1508 1508 1509 1509 1512 1513 1515 1513 1515 1515 1514
1411 1418 1422 1422 1424 1422 1410 1425 1393 1387 1383 1376 1372 1365 1367 1380 1385 1394 1399 1406 1412 1421 1429 1437 1445 1449 1454 1455 1465 1470 1474 1481 1486 1491 1494 1497 1498 1503 1506 1507 1507 1508 1512 1513 1514 1515 1513 1516 1513
1412 1425 1441 1432 1426 1414 1400 1415 1391 1376 1372 1368 1367 1361 1365 1374 1378 1385 1390 1397 1407 1415 1426 1433 1439 1443 1451 1455 1463 1467 1473 1480 1486 1489 1491 1494 1498 1503 1504 1505 1507 1509 1512 1513 1514 1513 1512 1513 1512
1407 1415 1417 1419 1414 1409 1390 1401 1388 1364 1366 1365 1364 1361 1360 1364 1368 1376 1383 1389 1399 1410 1422 1430 1435 1440 1449 1456 1463 1469 1475 1479 1483 1486 1490 1496 1500 1502 1503 1505 1507 1510 1510 1511 1512 1512 1510 1508 1507
1399 1407 1404 1411 1405 1409 1402 1382 1378 1363 1362 1361 1360 1359 1354 1357 1363 1368 1376 1383 1393 1406 1416 1426 1432 1438 1446 1455 1464 1467 1472 1480 1482 1488 1493 1497 1499 1500 1502 1505 1508 1508 1512 1512 1512 1510 1507 1505 1504
1393 1392 1407 1412 1413 1408 1398 1389 1382 1361 1359 1363 1358 1353 1349 1358 1356 1363 1369 1378 1389 1400 1413 1424 1432 1436 1443 1451 1458 1464 1472 1479 1484 1488 1492 1496 1496 1499 1504 1506 1508 1510 1512 1511 1508 1506 1506 1505 1503
1392 1391 1395 1396 1402 1409 1399 1383 1357 1355 1361 1363 1359 1352 1349 1350 1351 1358 1363 1373 1384 1398 1410 1418 1426 1432 1442 1449 1456 1464 1472 1478 1484 1489 1493 1496 1498 1501 1506 1508 1508 1510 1510 1508 1505 1505 1504 1502 1502
1384 1388 1389 1391 1392 1392 1388 1369 1347 1350 1355 1353 1353 1349 1348 1346 1350 1354 1365 1375 1387 1399 1408 1414 1424 1433 1442 1451 1457 1465 1472 1479 1485 1490 1495 1498 1500 1504 1504 1506 1510 1509 1507 1505 1503 1503 1502 1501 1499